Weather in Murmino

Russia / Ryazan Oblast     54°36′22″N   40°02′57″E
temp.,
°C
wind,
m/s
gust,
m/s
humid.,
%
clouds,
%
prec.,
mm/h
press.,
hPa
HPBL,
m
28 february, sun
sun2800:00−8nnw2396100 0.1 101385
03:00−10nw369696 0.1 1014143
06:00−10nw349678 0.1 1014103
09:00−9nnw359585 0.4 1015275
12:00−6nnw349197 0.1 1015429
15:00−4nnw359098 0.1 1015561
18:00−5n2495100 0.1 1016158
21:00−6nne2396100 0.1 101990
1 march, mon
mon100:00−7ne1296100 0.1 102147
03:00−11n229698 0.1 102321
06:00−12nnw229644 0.0 102421
09:00−10w119639 0.0 102522
12:00−5wsw349392 0.0 1024262
15:00−3sw469395 0.0 1023333
18:00−1wsw599098 0.0 1021506
21:00−1wsw6119299 0.1 1019478
2 march, tue
tue200:000wsw61292100 0.0 1016535
03:00+1wsw71392100 0.0 1013619
06:00+1w71498100 0.0 1009688
09:00+1nw81497100 0.3 1008847
12:00+1nw7139198 0.2 10081006
15:00+1nw8138796 0.4 1009991
18:00−1nw6139295 0.1 1010782
21:00−2nw6149093 0.2 1011564
3 march, wed
wed300:00−3nw6139480 0.0 1011476
03:00−3nw5129385 0.2 1012470
06:00−5nw6139395 0.0 1013501
09:00−4nnw7128897 0.1 1015944
12:00−2nnw7118286 0.0 10161064
15:00−1nw7118492 0.1 10171170
18:00−4nnw4118696 0.2 1018355
21:00−7nw489164 0.2 1020145
4 march, thu
thu400:00−7wnw479358 0.0 1020135
03:00−8w479540 0.0 1020104
06:00−8wsw47940 0.0 1019104
09:00−5wsw599137 0.0 1017275
12:00−1wsw6118780 0.0 1015484
15:000sw7138683 0.0 1013586
18:00−1sw71588100 0.0 1010580
21:00+1wsw71491100 0.0 1008879